[[{"header":{"parameterUnit":"m.s-1","parameterCategory":1,"la1":30.2991,"la2":30.254,"lo1":-89.0895,"lo2":-89.0444,"dy":0.0017,"dx":0.0017,"nx":28,"ny":28,"refTime":"2023-08-31T03:00:00:Z","depth":0,"parameterNumber":2,"parameterNumberName":"U-component_of_WINDS"},"data":[0,0,0,0,0,0,0,0,0,0,0,0,0,0,0,0,0,0,0,0,0,0,0,0,0,0,0,0,0,0,0,0,0,0,0,0,0,0,0,0,0,0,0,0,0,0,0,0,0,0,0,0,0,0,0,0,0,0,-0.4717,-0.4717,0,-0.4723,-0.4723,-0.4723,-0.4651,-0.4649,-0.4647,-0.4645,-0.4657,-0.4659,-0.4661,0,0,0,0,0,0,0,0,0,0,0,0,0,-0.4646,-0.4648,-0.4717,-0.4717,-0.4717,-0.4723,-0.4723,-0.4723,-0.4651,-0.4649,-0.4647,-0.4644,-0.4656,-0.4659,-0.4661,0,0,0,0,0,0,0,0,0,0,0,0,0,-0.4667,-0.4648,-0.4717,-0.4682,-0.4678,-0.4723,-0.4723,-0.4723,-0.4652,-0.4649,-0.4646,-0.4643,-0.4655,-0.4659,-0.4662,-0.4742,0,0,-0.4672,-0.4673,0,0,0,0,0,0,0,0,-0.4666,-0.467,-0.4687,-0.4684,-0.4681,-0.4683,-0.4702,-0.473,-0.4653,-0.4662,-0.4645,-0.4642,-0.4668,-0.467,-0.4678,-0.4742,-0.4743,-0.4672,-0.4674,-0.4675,-0.4676,0,0,0,0,0,0,0,-0.4665,-0.4669,-0.4719,-0.4687,-0.4683,-0.4667,-0.4666,-0.4707,-0.4682,-0.4661,-0.4656,-0.4657,-0.4666,-0.4675,-0.4678,-0.4743,-0.4672,-0.4675,-0.4677,-0.4678,-0.4872,-0.4875,0,0,0,0,0,0,-0.4667,-0.4668,-0.4719,-0.4719,-0.4666,-0.467,-0.467,-0.4685,-0.4682,-0.4678,-0.466,-0.4654,-0.4671,-0.4674,-0.4678,-0.4772,-0.4675,-0.4678,-0.468,-0.4868,-0.4872,-0.4876,0,0,0,0,0,0,-0.4666,-0.4672,-0.4719,-0.4692,-0.4697,-0.4675,-0.4693,-0.4687,-0.4696,-0.468,-0.4676,-0.4674,-0.4669,-0.4674,-0.4726,-0.4771,-0.468,-0.4683,-0.4865,-0.487,-0.4874,-0.4959,0,0,0,0,0,0,-0.4664,-0.4672,-0.4702,-0.4694,-0.4699,-0.4766,-0.4695,-0.4689,-0.4701,-0.4694,-0.4692,-0.4689,-0.4667,-0.4721,-0.4729,-0.4774,-0.4685,-0.4861,-0.4867,-0.4873,-0.4952,-0.4966,-0.4978,0,0,0,0,0,-0.4662,-0.4727,-0.4704,-0.471,-0.4735,-0.4768,-0.4772,-0.4743,-0.4705,-0.4735,-0.4725,-0.4689,-0.4764,-0.4727,-0.4735,-0.4782,-0.4858,-0.4865,-0.4872,-0.4946,-0.4963,-0.4978,0,0,0,0,0,0,-0.4744,-0.4726,-0.47,-0.4764,-0.4768,-0.4756,-0.4794,-0.4762,-0.4779,-0.4772,-0.4737,-0.4737,-0.4796,-0.4793,-0.4753,-0.4858,-0.4804,-0.4814,-0.4858,-0.4874,-0.4887,-0.4887,-0.4688,0,0,0,0,0,-0.4769,-0.4796,-0.4779,-0.4837,-0.484,-0.4817,-0.483,-0.4808,-0.4811,-0.4814,-0.4807,-0.4814,-0.4838,-0.4856,-0.4878,-0.495,-0.4949,-0.4986,-0.4999,-0.501,-0.5019,-0.5057,-0.5073,-0.4899,-0.4899,-0.4899,0,0,-0.4823,-0.4815,-0.4836,-0.4854,-0.4854,-0.4885,-0.4819,-0.4854,-0.4877,-0.4819,-0.4868,-0.4863,-0.4868,-0.4931,-0.4958,-0.4931,-0.5066,-0.5019,-0.5027,-0.5031,-0.5066,-0.5083,-0.5097,-0.4904,-0.4903,-0.4903,0,0,-0.4935,-0.4932,-0.498,-0.4981,-0.4982,-0.4965,-0.4976,-0.4969,-0.4963,-0.501,-0.4968,-0.4994,-0.5038,-0.5043,-0.5051,-0.5162,-0.513,-0.517,-0.5239,-0.5277,-0.529,-0.5302,-0.5343,-0.5358,-0.5179,-0.5179,-0.5179,0,-0.5002,-0.5045,-0.5009,-0.5046,-0.5056,-0.5002,-0.5051,-0.5054,-0.5064,-0.5072,-0.504,-0.5092,-0.5092,-0.5155,-0.5182,-0.519,-0.5203,-0.5172,-0.5291,-0.5303,-0.5313,-0.5352,-0.5367,-0.5184,-0.5183,-0.5183,-0.5182,0,-0.5127,-0.5157,-0.5196,-0.5203,-0.5216,-0.526,-0.5232,-0.525,-0.5225,-0.5212,-0.526,-0.5257,-0.5277,-0.529,-0.5267,-0.535,-0.5333,-0.5296,-0.5242,-0.5336,-0.5371,-0.5386,-0.5191,-0.5189,-0.5188,-0.5186,0,0,-0.5296,-0.528,-0.5295,-0.5297,-0.5293,-0.5316,-0.5356,-0.5373,-0.539,-0.5397,-0.5431,-0.5467,-0.5433,-0.5442,-0.5419,-0.5452,-0.5541,-0.5411,-0.5411,-0.5437,-0.5632,-0.5661,-0.5678,-0.5518,-0.552,-0.5523,-0.5632,0,-0.5406,-0.5473,-0.5441,-0.5512,-0.554,-0.5487,-0.5522,-0.5524,-0.5512,-0.5534,-0.5521,-0.5548,-0.55,-0.5505,-0.5535,-0.5524,-0.558,-0.5515,-0.5551,-0.5553,-0.5554,-0.5697,-0.5728,-0.5831,-0.5646,-0.5648,-0.565,0,-0.5546,-0.5556,-0.5629,-0.5618,-0.5628,-0.566,-0.5673,-0.5694,-0.5694,-0.5683,-0.5692,-0.566,-0.57,-0.5643,-0.5698,-0.5654,-0.5666,-0.5663,-0.5666,-0.5671,-0.5609,-0.5707,-0.5864,-0.588,-0.5671,-0.5669,-0.5668,0,-0.5663,-0.5695,-0.5742,-0.5746,-0.5734,-0.5757,-0.5754,-0.575,-0.5762,-0.5773,-0.5781,-0.5797,-0.5807,-0.582,-0.5794,-0.5755,-0.5853,-0.5794,-0.5846,-0.5847,-0.5871,-0.5871,-0.6034,-0.5876,-0.5876,-0.5875,-0.5875,0,-0.5791,-0.5839,-0.5795,-0.5825,-0.5876,-0.5838,-0.589,-0.5881,-0.5878,-0.5906,-0.5861,-0.5889,-0.5851,-0.5875,-0.5855,-0.5903,-0.5908,-0.5901,-0.5895,-0.5906,-0.5907,-0.5916,-0.5909,-0.5879,-0.5878,-0.5878,-0.5877,0,-0.5933,-0.5905,-0.5954,-0.5936,-0.5933,-0.5972,-0.5958,-0.5985,-0.5968,-0.6004,-0.601,-0.5985,-0.601,-0.5984,-0.6008,-0.5995,-0.606,-0.6043,-0.606,-0.6056,-0.611,-0.6106,-0.6286,-0.6309,-0.6134,-0.6136,-0.6137,0,-0.6018,-0.6053,-0.6038,-0.6052,-0.6051,-0.6074,-0.6085,-0.6049,-0.6062,-0.6064,-0.6091,-0.6112,-0.6127,-0.617,-0.6155,-0.6173,-0.6157,-0.6219,-0.616,-0.6169,-0.616,-0.6159,-0.6162,-0.6232,-0.6234,-0.6236,-0.6237,0,-0.6172,-0.6156,-0.6173,-0.6184,-0.6198,-0.6206,-0.6211,-0.6225,-0.6187,-0.6204,-0.6228,-0.624,-0.6263,-0.6285,-0.6297,-0.6295,-0.6261,-0.6255,-0.6268,-0.6281,-0.629,-0.6287,-0.6095,-0.6252,-0.6251,-0.625,-0.6249,-0.6248,-0.6289,-0.6317,-0.6311,-0.6331,-0.6329,-0.6334,-0.6358,-0.6343,-0.6362,-0.6377,-0.6354,-0.6384,-0.6382,-0.6395,-0.6396,-0.642,-0.6394,-0.6413,-0.6418,-0.6424,-0.6432,-0.6284,-0.6422,-0.6421,-0.6421,-0.642,-0.642,0,-0.6443,-0.6435,-0.6453,-0.6459,-0.6475,-0.6437,-0.644,-0.6456,-0.6483,-0.6482,-0.6497,-0.6524,-0.6544,-0.6529,-0.6546,-0.6568,-0.6553,-0.6574,-0.6573,-0.6573,-0.6454,-0.6441,-0.6586,-0.6586,-0.6586,-0.6586,-0.6586,-0.6586,-0.6525,-0.657,-0.6552,-0.6597,-0.6589,-0.6616,-0.6621,-0.6625,-0.6625,-0.6656,-0.6672,-0.6661,-0.6655,-0.667,-0.6687,-0.6682,-0.6691,-0.6719,-0.6708,-0.6598,-0.6582,-0.6566,-0.6554,-0.672,-0.6721,-0.6826,-0.6827,-0.6828]},{"header":{"parameterUnit":"m.s-1","parameterCategory":1,"la1":30.2991,"la2":30.254,"lo1":-89.0895,"lo2":-89.0444,"dy":0.0017,"dx":0.0017,"nx":28,"ny":28,"refTime":"2023-08-31T03:00:00:Z","depth":0,"parameterNumber":3,"parameterNumberName":"V-component_of_WINDS"},"data":[0,0,0,0,0,0,0,0,0,0,0,0,0,0,0,0,0,0,0,0,0,0,0,0,0,0,0,0,0,0,0,0,0,0,0,0,0,0,0,0,0,0,0,0,0,0,0,0,0,0,0,0,0,0,0,0,0,0,-3.2293,-3.2294,0,-3.2369,-3.2369,-3.237,-3.2348,-3.2346,-3.2345,-3.2343,-3.2418,-3.2422,-3.2425,0,0,0,0,0,0,0,0,0,0,0,0,0,-3.2125,-3.2128,-3.2293,-3.2294,-3.2295,-3.2368,-3.2369,-3.237,-3.2348,-3.2346,-3.2344,-3.2342,-3.2417,-3.2421,-3.2425,0,0,0,0,0,0,0,0,0,0,0,0,0,-3.2199,-3.2129,-3.2292,-3.2292,-3.2293,-3.2368,-3.2369,-3.2371,-3.2348,-3.2346,-3.2344,-3.2342,-3.2416,-3.2421,-3.2426,-3.2505,0,0,-3.2442,-3.2444,0,0,0,0,0,0,0,0,-3.2195,-3.2205,-3.2291,-3.2292,-3.2293,-3.2346,-3.2338,-3.2416,-3.2349,-3.2327,-3.2343,-3.234,-3.2396,-3.2403,-3.2422,-3.2508,-3.2512,-3.2442,-3.2445,-3.2448,-3.2449,0,0,0,0,0,0,0,-3.219,-3.2202,-3.2323,-3.2293,-3.2294,-3.2287,-3.2295,-3.2352,-3.2374,-3.2329,-3.2328,-3.2337,-3.2396,-3.2417,-3.2424,-3.2513,-3.2442,-3.2447,-3.245,-3.2452,-3.2666,-3.2668,0,0,0,0,0,0,-3.2184,-3.2198,-3.232,-3.2325,-3.2237,-3.2292,-3.2301,-3.2332,-3.2373,-3.2377,-3.2339,-3.2336,-3.2409,-3.2418,-3.2426,-3.252,-3.2447,-3.2452,-3.2455,-3.2663,-3.2666,-3.2669,0,0,0,0,0,0,-3.2181,-3.2196,-3.2317,-3.2261,-3.2276,-3.2298,-3.2332,-3.2334,-3.2355,-3.2381,-3.2384,-3.2357,-3.2408,-3.2419,-3.2485,-3.2522,-3.2455,-3.2459,-3.266,-3.2664,-3.2668,-3.2709,0,0,0,0,0,0,-3.2176,-3.2194,-3.2226,-3.2262,-3.2279,-3.2376,-3.2335,-3.2338,-3.2365,-3.2361,-3.2398,-3.2402,-3.2407,-3.2478,-3.249,-3.2528,-3.2463,-3.2657,-3.2662,-3.2667,-3.2705,-3.2714,-3.2722,0,0,0,0,0,-3.217,-3.2234,-3.2227,-3.2242,-3.2319,-3.2378,-3.2388,-3.2393,-3.2368,-3.2399,-3.2415,-3.2401,-3.2517,-3.2485,-3.2499,-3.2539,-3.2655,-3.2661,-3.2666,-3.2701,-3.2712,-3.2722,0,0,0,0,0,0,-3.2201,-3.2239,-3.2232,-3.2309,-3.2341,-3.2374,-3.2413,-3.2405,-3.2444,-3.2439,-3.2443,-3.2451,-3.2519,-3.2536,-3.2499,-3.2616,-3.2582,-3.2591,-3.2603,-3.2614,-3.2623,-3.2616,-3.2468,0,0,0,0,0,-3.2217,-3.2263,-3.2293,-3.2359,-3.2375,-3.2392,-3.2418,-3.2419,-3.2451,-3.2464,-3.2485,-3.2517,-3.256,-3.2588,-3.2629,-3.2707,-3.2714,-3.2742,-3.275,-3.2757,-3.2764,-3.2805,-3.2817,-3.2688,-3.2688,-3.2688,0,0,-3.225,-3.2276,-3.2305,-3.2365,-3.239,-3.2437,-3.2403,-3.2454,-3.2488,-3.2472,-3.2536,-3.2552,-3.2587,-3.2659,-3.2692,-3.2675,-3.2802,-3.2765,-3.277,-3.2773,-3.2812,-3.2824,-3.2835,-3.2692,-3.2691,-3.2691,0,0,-3.2333,-3.2359,-3.2415,-3.2441,-3.2478,-3.2489,-3.2502,-3.2537,-3.2548,-3.2612,-3.26,-3.2641,-3.2716,-3.274,-3.2763,-3.2855,-3.2843,-3.2869,-3.2914,-3.2953,-3.2963,-3.2972,-3.3003,-3.3015,-3.2876,-3.2876,-3.2876,0,-3.2369,-3.244,-3.2445,-3.2497,-3.2523,-3.2511,-3.2568,-3.2592,-3.2641,-3.2659,-3.2639,-3.2732,-3.2755,-3.2832,-3.2854,-3.2874,-3.2888,-3.2864,-3.2962,-3.2971,-3.2979,-3.3009,-3.3021,-3.2879,-3.2878,-3.2878,-3.2878,0,-3.2481,-3.253,-3.2571,-3.2619,-3.265,-3.2704,-3.2716,-3.2747,-3.2745,-3.2757,-3.2822,-3.2849,-3.2895,-3.2914,-3.2912,-3.299,-3.2978,-3.2961,-3.2925,-3.2994,-3.3022,-3.3033,-3.2883,-3.2882,-3.2881,-3.288,0,0,-3.2586,-3.2636,-3.265,-3.2671,-3.2712,-3.275,-3.2802,-3.2848,-3.2873,-3.2907,-3.295,-3.3014,-3.2997,-3.3023,-3.3024,-3.3059,-3.3128,-3.3037,-3.3038,-3.3051,-3.3214,-3.3225,-3.3239,-3.3121,-3.3124,-3.3125,-3.321,0,-3.2671,-3.2765,-3.2771,-3.2855,-3.2899,-3.2889,-3.2934,-3.2963,-3.2976,-3.3015,-3.3028,-3.3072,-3.3048,-3.3063,-3.3098,-3.3113,-3.3161,-3.3107,-3.316,-3.3162,-3.315,-3.3254,-3.3267,-3.3345,-3.3221,-3.3223,-3.3224,0,-3.2784,-3.2822,-3.291,-3.2943,-3.2962,-3.3003,-3.3045,-3.3083,-3.3115,-3.3121,-3.315,-3.3146,-3.3199,-3.3163,-3.3234,-3.3197,-3.3219,-3.323,-3.3233,-3.3237,-3.3196,-3.3258,-3.3371,-3.3382,-3.3242,-3.3241,-3.3239,0,-3.2849,-3.2922,-3.2984,-3.3003,-3.3043,-3.3072,-3.309,-3.312,-3.3147,-3.3183,-3.32,-3.3241,-3.3264,-3.3295,-3.3302,-3.3276,-3.3373,-3.3338,-3.3379,-3.3378,-3.3398,-3.3397,-3.3514,-3.3415,-3.3415,-3.3415,-3.3415,0,-3.2943,-3.2997,-3.3014,-3.3052,-3.3112,-3.3118,-3.3176,-3.3192,-3.3219,-3.3259,-3.3253,-3.329,-3.3298,-3.3336,-3.3342,-3.3399,-3.341,-3.3415,-3.3416,-3.3415,-3.3414,-3.3428,-3.3422,-3.3418,-3.3418,-3.3417,-3.3416,0,-3.3025,-3.3039,-3.3105,-3.3138,-3.3148,-3.3191,-3.3218,-3.3254,-3.3266,-3.3316,-3.3329,-3.3347,-3.3392,-3.3402,-3.3456,-3.346,-3.3527,-3.3523,-3.3516,-3.3515,-3.3554,-3.355,-3.3683,-3.37,-3.3592,-3.3593,-3.3594,0,-3.3083,-3.3125,-3.3162,-3.3189,-3.3209,-3.3252,-3.3279,-3.3286,-3.3314,-3.3354,-3.3384,-3.3429,-3.3464,-3.3537,-3.3554,-3.3594,-3.359,-3.3634,-3.3596,-3.3593,-3.3588,-3.3585,-3.3588,-3.3641,-3.3642,-3.3643,-3.3644,0,-3.3185,-3.319,-3.3229,-3.3271,-3.3304,-3.3337,-3.3368,-3.339,-3.3402,-3.3434,-3.348,-3.3508,-3.3562,-3.3606,-3.3646,-3.3663,-3.3655,-3.3656,-3.3667,-3.3665,-3.3659,-3.3661,-3.3534,-3.3652,-3.3651,-3.3651,-3.365,-3.365,-3.3256,-3.3292,-3.3323,-3.3367,-3.3392,-3.3421,-3.3456,-3.3473,-3.3512,-3.3557,-3.3559,-3.3609,-3.3638,-3.3692,-3.3712,-3.375,-3.3736,-3.3753,-3.3757,-3.376,-3.3763,-3.3654,-3.3758,-3.3757,-3.3757,-3.3757,-3.3757,0,-3.3355,-3.3375,-3.3416,-3.346,-3.3495,-3.3485,-3.3519,-3.3548,-3.3592,-3.3621,-3.3657,-3.3709,-3.3751,-3.3772,-3.3813,-3.3839,-3.3836,-3.385,-3.3847,-3.385,-3.3774,-3.3759,-3.3851,-3.3851,-3.3851,-3.3851,-3.3851,-3.3851,-3.3411,-3.347,-3.3479,-3.355,-3.3569,-3.3618,-3.3638,-3.3665,-3.3688,-3.3747,-3.3782,-3.3795,-3.3821,-3.3863,-3.3901,-3.3906,-3.392,-3.3935,-3.3938,-3.3866,-3.3856,-3.3847,-3.3833,-3.3939,-3.3939,-3.4011,-3.4012,-3.4012]}]]